Clarksburg, WV

4:55 AM EST on December 15, 2019 (GMT -0500)
Benedum

Weather History for KCKB - October, 2019

Change the Weather History Date:

Friday, October 11, 2019

  Actual Average Record
Temperature  
Mean Temperature 66 °F -  
Max Temperature 82 °F 66 °F 88 °F (1949)
Min Temperature 50 °F 42 °F 21 °F (1964)
Cooling Degree Days 1    
Month to date cooling degree days 51  
Year to date cooling degree days 1331  
Growing Degree Days 16 (Base 50)    
Moisture  
Dew Point 50 °F    
Average Humidity 59    
Maximum Humidity 83    
Minimum Humidity 35    
Precipitation  
Precipitation 0.00 in - - ()
Month to date precipitation 0.74  
Year to date precipitation 32.81  
Sea Level Pressure  
Sea Level Pressure 30.06 in    
Wind  
Wind Speed 0 mph (North)    
Max Wind Speed 8 mph    
Max Gust Speed 11 mph    
Visibility 10 miles    
Events      
Averages and records for this station are not official NWS values.
T = Trace of Precipitation, MM = Missing Value Source: NWS Daily Summary

Daily Weather History Graph

Daily Weather History Graph

Search for Another Location

Airport or City:

Astronomy

Oct. 11, 2019 Rise Set
Actual Time 7:26 AM EDT 6:48 PM EDT
Civil Twilight 6:59 AM EDT 7:15 PM EDT
Nautical Twilight 6:28 AM EDT 7:46 PM EDT
Astronomical Twilight 5:57 AM EDT 8:17 PM EDT
Moon 6:15 PM EDT (10/11) 5:06 AM EDT (10/11)
Length of Visible Light 12h 15m
Length of Day
11h 21m
Waxing Gibbous, 96% of the Moon is Illuminated
Oct 11
Waxing Gibbous
Oct 13
Full
Oct 21
Last Quarter
Oct 27
New
Nov 4
First Quarter

Hourly Weather History & Observations

Time (EDT) Temp. Dew Point Humidity Pressure Visibility Wind Dir Wind Speed Gust Speed Precip Events Conditions
12:53 AM 57.9 °F 48.0 °F 70% 30.13 in 10.0 mi Calm Calm - N/A   Clear
1:53 AM 55.0 °F 48.0 °F 77% 30.13 in 10.0 mi Calm Calm - N/A   Clear
2:53 AM 53.1 °F 48.0 °F 83% 30.12 in 10.0 mi Calm Calm - N/A   Clear
3:53 AM 53.1 °F 48.0 °F 83% 30.11 in 10.0 mi Calm Calm - N/A   Clear
4:53 AM 51.1 °F 46.9 °F 86% 30.12 in 10.0 mi Calm Calm - N/A   Clear
5:53 AM 51.1 °F 46.9 °F 86% 30.12 in 10.0 mi Calm Calm - N/A   Clear
6:53 AM 51.1 °F 46.9 °F 86% 30.12 in 10.0 mi Calm Calm - N/A   Clear
7:53 AM 51.1 °F 46.9 °F 86% 30.13 in 10.0 mi Calm Calm - N/A   Clear
8:53 AM 57.9 °F 51.1 °F 78% 30.14 in 10.0 mi Calm Calm - N/A   Clear
10:53 AM 69.1 °F 52.0 °F 54% 30.13 in 10.0 mi Calm Calm - N/A   Clear
11:53 AM 73.9 °F 50.0 °F 43% 30.11 in 10.0 mi Calm Calm - N/A   Clear
12:53 PM 78.1 °F 50.0 °F 37% 30.08 in 10.0 mi Variable 3.5 mph - N/A   Clear
1:53 PM 80.1 °F 50.0 °F 35% 30.06 in 10.0 mi Calm Calm - N/A   Clear
2:53 PM 79.0 °F 50.0 °F 36% 30.03 in 10.0 mi Calm Calm - N/A   Clear
3:53 PM 79.0 °F 50.0 °F 36% 30.01 in 10.0 mi Calm Calm - N/A   Clear
4:53 PM 81.0 °F 50.0 °F 34% 30.00 in 10.0 mi Calm Calm - N/A   Clear
5:53 PM 78.1 °F 54.0 °F 43% 29.99 in 10.0 mi Calm Calm - N/A   Clear
6:53 PM 73.9 °F 51.1 °F 45% 29.99 in 10.0 mi Calm Calm - N/A   Clear
7:53 PM 68.0 °F 53.1 °F 59% 29.99 in 10.0 mi Calm Calm - N/A   Clear
8:53 PM 64.9 °F 53.1 °F 65% 29.98 in 10.0 mi Calm Calm - N/A   Clear
9:53 PM 64.9 °F 55.0 °F 70% 29.98 in 10.0 mi Calm Calm - N/A   Overcast
10:53 PM 64.9 °F 54.0 °F 68% 29.97 in 10.0 mi Calm Calm - N/A   Overcast
11:53 PM 64.0 °F 54.0 °F 70% 29.95 in 10.0 mi Calm Calm - N/A   Overcast